Location: Hilton Head Island
(32.2163°N, 80.7526°W)
Time: 20:04:58
(UTC-04:00)

Vanguard 2 Rocket - Pass Details

Date: 17 February 2026
Orbit: 553 x 3286 km, 32.9° (Epoch: 9 March)

Event Time Altitude Azimuth Distance (km) Brightness Sun altitude
Rises 09:10:18 0° 198° (SSW) 6,778 11.5 23.8°
Reaches altitude 10° 09:16:00 10° 186° (S) 6,019 11.5 24.8°
Maximum altitude 09:30:22 26° 139° (SE) 4,979 13.0 27.3°
Drops below altitude 10° 09:43:57 10° 92° (E) 5,763 11.9 29.6°
Sets 09:49:04 0° 81° (E) 6,458 11.8 30.4°
